Regional Weather Roundup
Issued by NWS Grand Forks, ND

Home | Current Version | Previous Version | Text Only | Print | Product List | Glossary Off
Versions: 1 2 3 4 5 6 7 8 9 10 11 12 13 14 15 16 17 18 19 20 21 22 23 24 25 26 27 28 29 30 31 32 33 34 35 36 37 38 39 40 41 42 43 44 45 46 47 48 49 50

000
ASUS43 KFGF 090031
RWRFGF
PRAIRIE TO PINES  WEATHER ROUNDUP
NATIONAL WEATHER SERVICE EASTERN NORTH DAKOTA/GRAND FORKS ND
600 PM CST MON FEB 08 2016

 **SATELLITE DATA USED TO AUGMENT SKY COVER AT AUTOMATED STATIONS**
 *****  WEATHER ACROSS EASTERN NORTH DAKOTA  *****

CITY           SKY/WX    TMP DP  RH WIND       PRES   REMARKS
GRAND FORKS    CLOUDY    11   2  67 N26G36    30.25R BLWGSNOWWCI -10
6HR MIN TEMP:  11; 6HR MAX TEMP:  15; 6HR PCP:  0.01;

GRAND FRKS AFB CLOUDY    10   3  72 N18G25    30.25S WCI  -8
DEVILS LAKE    CLEAR     14   9  80 N9        30.24R WCI   2
6HR MIN TEMP:  14; 6HR MAX TEMP:  20; 6HR PCP: TRACE;

FARGO          LGT SNOW  12   5  73 N31G38    30.23R WCI -10
WAHPETON ARPT  CLOUDY    12   7  79 N16G26    30.19S WCI  -4
$$

 ***** WEATHER ACROSS CENTRAL AND WESTERN NORTH DAKOTA  *****

CITY           SKY/WX    TMP DP  RH WIND       PRES   REMARKS
BISMARCK       PTCLDY    34  18  52 NW17G26   30.26R WCI  23
6HR MIN TEMP:  33; 6HR MAX TEMP:  39;

MINOT          CLEAR     27  12  53 NW12      30.25S WCI  17
6HR MIN TEMP:  27; 6HR MAX TEMP:  34;

JAMESTOWN      CLEAR     20  13  74 N15       30.19R WCI   6
6HR MIN TEMP:  20; 6HR MAX TEMP:  26; 6HR PCP: TRACE;

MINOT AFB      CLEAR     26  15  63 NW5       30.25S WCI  20
GARRISON         N/A     29  16  58 N21G26    30.25R WCI  16
WILLISTON      CLOUDY    34  18  52 NW6       30.29F
6HR MIN TEMP:  32; 6HR MAX TEMP:  36;

DICKINSON      CLOUDY    32  13  45 NW13      30.24R WCI  22
6HR MIN TEMP:  31; 6HR MAX TEMP:  36;

HETTINGER      CLOUDY    33  10  38 NW12      30.26R WCI  24
6HR MIN TEMP:  33; 6HR MAX TEMP:  38;

$$

 *****  OTHER AIRPORT OBSERVATIONS IN OUR AREA  *****

CITY           SKY/WX    TMP DP  RH WIND       PRES   REMARKS
WALHALLA       FAIR       9   7  92 N12       30.29R WCI  -6
GRAFTON AIRPOR MOCLDY     9   3  78 N22G29    30.29R WCI -11
VALLEY CITY AR FAIR      16  12  86 N15G23    30.21R WCI   1
CANDO          FAIR      16  10  79 N8        30.26R WCI   5
CAVALIER APRT  FAIR       9   3  78 N17       30.28R WCI -10
GWINNER        FAIR      19  12  73 N17       30.19R WCI   4
SHEYENNE NWR     N/A     14   7  75 N10       29.95S WCI   1
ROLLA          FAIR      16   7  67 N17       30.22S WCI   0
 ***** THE ABOVE OBSERVATIONS ARE NON NWS ARE NOT QUALITY
       CONTROLLED AND MAY MIS-REPORT RAIN FOR SNOW...
$$

  *****  WEATHER ACROSS NORTHERN MINNESOTA  *****

CITY           SKY/WX    TMP DP  RH WIND       PRES   REMARKS
FLAG ISLAND    CLOUDY     7   0  72 NW20      30.14R WCI -13
WARROAD        CLOUDY     7   1  78 NW15G24   30.15R WCI -11
ROSEAU         CLOUDY     9   3  78 N17       30.16R WCI -10
HALLOCK        CLOUDY    10   3  72 N21       30.24R WCI  -9
THF RVR FALLS  NOT AVBL
BAUDETTE       LGT SNOW   6  -2  69 NW18G25   30.08R WCI -13
6HR MIN TEMP:   4; 6HR MAX TEMP:   6; 6HR PCP: TRACE;

WASKISH        CLOUDY     7   1  78 NW12G17   30.09R WCI  -9
CROOKSTON      PTCLDY    10   5  79 N25       30.23R HAZE    WCI -10
STEPHEN NDAWN    N/A      9   1  72 NW21        N/A  WCI -11
GREENBUSH NDAW   N/A      9   3  78 N22         N/A  WCI -11
$$
  *****  WEATHER ACROSS CENTRAL AND WEST MINNESOTA  *****

CITY           SKY/WX    TMP DP  RH WIND       PRES   REMARKS
FOSSTON        LGT SNOW   7   3  85 NW16      30.13R WCI -11
BEMIDJI        LGT SNOW   8   2  78 NW20      30.06R WCI -12
PARK RAPIDS    CLOUDY     9   1  70 NW20G29   30.04R WCI -10
6HR MIN TEMP:   9; 6HR MAX TEMP:  12; 6HR PCP: TRACE;

ELBOW LAKE     FAIR       9   2  73 NW23G30   30.13R WCI -12
WADENA         CLOUDY     9   3  78 NW17G24   30.05R WCI -10
DETROIT LAKES  CLOUDY    10   7  85 NW21G28   30.11S WCI  -9
MOORHEAD         N/A     10   5  79 N31G38    30.21S WCI -12
FERGUS FALLS   CLOUDY     9   1  72 N22G32    30.18S WCI -11
MORRIS MN      PTCLDY    12   3  67 N26G37    30.11S WCI  -8
STAPLES        CLOUDY     9   1  72 N24       30.04R WCI -12
$$
  *****  WEATHER ELSEWHERE ACROSS MINNESOTA  *****

CITY           SKY/WX    TMP DP  RH WIND       PRES   REMARKS
DULUTH         LGT SNOW   7   0  73 NW16G23   29.90R BLWGSNOWWCI -11
6HR MIN TEMP:   7; 6HR MAX TEMP:  11; 6HR PCP: TRACE;

INTRNTL FALLS  LGT SNOW   4  -3  73 NW17      30.04R WCI -16
6HR MIN TEMP:   4; 6HR MAX TEMP:   6; 6HR PCP: TRACE;

ELY            CLOUDY     5   1  85 NW14      29.91R WCI -12
CLOQUET        FLURRIES   9   1  72 NW12G22   29.93R WCI  -6
WHEATON        CLOUDY    12   9  85 N15G22    30.20R WCI  -4
BRAINERD       FLURRIES  11   3  70 N20       30.01R WCI  -7
6HR MIN TEMP:  11; 6HR MAX TEMP:  13; 6HR PCP: TRACE;

HIBBING        LGT SNOW   5  -1  76 NW21G28   29.95R WCI -16
6HR MIN TEMP:   5; 6HR MAX TEMP:   7; 6HR PCP: TRACE;

ALEXANDRIA     CLOUDY    11   2  67 NW25G31   30.06R WCI -10
6HR MIN TEMP:  11; 6HR MAX TEMP:  14; 6HR PCP: TRACE;

SAINT CLOUD    CLOUDY    14   4  64 NW16G26   29.99R WCI  -2
6HR MIN TEMP:  12; 6HR MAX TEMP:  15; 6HR PCP: TRACE;

MINNEAPOLIS    CLOUDY    16   6  65 NW18G26   29.96F WCI   0
6HR MIN TEMP:  14; 6HR MAX TEMP:  17; 6HR PCP: TRACE;

$$

  *****  WEATHER ACROSS SOUTH DAKOTA  *****

CITY           SKY/WX    TMP DP  RH WIND       PRES   REMARKS
SIOUX FALLS    CLOUDY    24  14  65 N16       30.10R WCI  11
6HR MIN TEMP:  22; 6HR MAX TEMP:  25; 6HR PCP: TRACE;

BROOKINGS      CLEAR     19  13  77 N22       30.07S WCI   2
WATERTOWN      CLEAR     18  10  71 N20       30.10R WCI   2
6HR MIN TEMP:  18; 6HR MAX TEMP:  22; 6HR PCP: TRACE;

HURON          PTCLDY    29  16  58 N20       30.17R WCI  16
6HR MIN TEMP:  28; 6HR MAX TEMP:  33;

SISSETON         N/A     14  11  87 N16G25    30.16R WCI  -2
ABERDEEN       CLEAR     26  11  52 N15       30.18R WCI  14
6HR MIN TEMP:  26; 6HR MAX TEMP:  34;

MITCHELL       MOCLDY    32  19  58 N17G31    30.16S WCI  21
PIERRE         CLOUDY    35  17  47 N14       30.21S
6HR MIN TEMP:  33; 6HR MAX TEMP:  39;

MOBRIDGE       CLOUDY    34  19  54 N14       30.20R WCI  25
RAPID CITY     CLOUDY    41  16  36 N18       30.24S
6HR MIN TEMP:  40; 6HR MAX TEMP:  43;

$$

  *****  SOME WEATHER IN NEARBY STATES *****

CITY           SKY/WX    TMP DP  RH WIND       PRES   REMARKS
GLASGOW MT     PTCLDY    33  24  69 E7        30.27F
6HR MIN TEMP:  31; 6HR MAX TEMP:  38;

GREAT FALLS MT PTCLDY    54  29  38 W17       30.33S
6HR MIN TEMP:  52; 6HR MAX TEMP:  62;

CHEYENNE WY    CLEAR     40  24  53 NW22G38   30.31S
6HR MIN TEMP:  39; 6HR MAX TEMP:  42;

SCOTTSBLUFF NE CLOUDY    40  29  64 NW9       30.29S
6HR MIN TEMP:  36; 6HR MAX TEMP:  42;

OMAHA NE       PTCLDY    27  18  69 N15       30.10S WCI  15
6HR MIN TEMP:  27; 6HR MAX TEMP:  30; 6HR PCP: TRACE;

DES MOINES IA  FLURRIES  20  10  65 NW23G31   30.03S WCI   3
6HR MIN TEMP:  18; 6HR MAX TEMP:  20; 6HR PCP: TRACE;

DAVENPORT IA   CLOUDY    18   9  68 NW23G32   29.88R WCI   0
6HR MIN TEMP:  18; 6HR MAX TEMP:  21; 6HR PCP: TRACE;

CHICAGO IL     CLOUDY    27  19  72 W12       29.73R WCI  17
6HR MIN TEMP:  27; 6HR MAX TEMP:  28; 6HR PCP: TRACE;

EAU CLAIRE WI  LGT SNOW  13   6  74 NW10      29.89S WCI   0
6HR MIN TEMP:  13; 6HR MAX TEMP:  16; 6HR PCP: TRACE;

LA CROSSE WI   LGT SNOW  15   9  76 NW15      29.90S WCI   0
6HR MIN TEMP:  15; 6HR MAX TEMP:  20; 6HR PCP: TRACE;

$$

  *****  SOME NATIONAL WEATHER *****

CITY           SKY/WX    TMP DP  RH WIND       PRES   REMARKS
LA GUARDIA NY  FLURRIES  31  23  72 N9        29.79R WCI  23
6HR MIN TEMP:  31; 6HR MAX TEMP:  33; 6HR PCP: TRACE;

RALEIGH NC     LGT RAIN  41  38  89 SE6       29.68F
6HR MIN TEMP:  41; 6HR MAX TEMP:  56; 6HR PCP:  0.09;

ATLANTA GA     PTCLDY    44  22  41 NW14      29.79R
6HR MIN TEMP:  44; 6HR MAX TEMP:  54;

NEW ORLEANS LA PTCLDY    54  15  21 NW21G30   30.05R
6HR MIN TEMP:  54; 6HR MAX TEMP:  61;

OKLAHOMA CITY  MOCLDY    45   6  20 N26G40    30.23R
6HR MIN TEMP:  45; 6HR MAX TEMP:  51;

ALBUQUERQUE NM PTCLDY    56  19  23 N14       30.33F
6HR MIN TEMP:  47; 6HR MAX TEMP:  59;

SALT LAKE CITY MOCLDY    37  29  72 W8        30.63S
6HR MIN TEMP:  33; 6HR MAX TEMP:  40;

LOS ANGELES CA SUNNY     81  28  14 W8        30.07S
6HR MIN TEMP:  78; 6HR MAX TEMP:  89;

BOISE ID       CLEAR     44  34  67 S8        30.64F
6HR MIN TEMP:  39; 6HR MC1F1C2F2C3F3C4F4C5F5C6F6C7F7C8F8C9F9CaFaCbFbCcFcCd!


USA.gov is the U.S. government's official web portal to all federal, state and local government web resources and services.